SCP
0 0 0 0 0 0 0 1 3 6 7 7 6 4 7 5 5 8 4 5 4 5
0 0 0 1 1 0 1 1 2 4 3 3 4 4 7 6 7 6 6 5 6 4
0 0 0 0 1 1 1 2 2 4 5 2 3 3 6 7 5 6 6 4 5 5
0 0 0 0 0 0 1 1 1 2 3 4 3 4 6 7 5 5 6 4 4 4
0 0 0 0 0 0 1 1 1 2 2 2 3 4 4 4 4 4 4 3 4 4
0 0 0 0 0 0 0 1 1 1 2 2 3 4 3 3 3 3 3 3 3 3
0 0 0 0 0 0 0 0 1 2 1 1 2 2 2 2 4 4 3 3 2 2
0 0 0 0 0 0 0 0 1 1 1 1 2 2 2 2 4 4 3 3 2 2
0 0 0 0 0 0 0 1 2 1 1 1 2 1 3 3 4 3 3 3 2 3
0 0 0 0 0 0 0 1 1 1 1 1 2 1 3 4 5 3 3 3 3 2
0 0 0 0 0 0 0 1 1 1 1 2 4 0 2 3 4 3 3 2 2 1
0 0 0 0 0 0 0 1 1 2 2 2 2 0 1 2 3 2 2 2 1 1
0 -0 0 0 0 0 0 1 2 2 1 2 1 0 1 2 2 3 2 1 1 0
0 0 0 0 0 -0 1 2 2 1 2 3 2 0 0 1 2 1 1 1 1 0
Wind_Speed_500mb
36 36 36 44 51 50 49 52 56 67 73 66 65 63 72 78 74 69 62 63 53 42
39 41 41 48 57 56 59 59 58 60 61 55 62 68 73 65 61 63 59 53 53 45
44 45 47 48 54 55 59 65 64 53 58 60 56 59 64 57 61 58 51 47 46 43
51 51 51 51 53 57 57 61 68 62 55 59 56 62 66 64 58 55 58 50 45 44
57 57 58 57 55 61 62 59 59 57 57 62 60 66 72 70 60 58 59 51 47 45
57 62 61 63 62 62 62 60 58 58 60 68 69 71 75 67 65 57 54 52 47 47
62 64 67 69 69 65 62 59 59 62 67 74 70 71 70 67 65 57 52 48 44 46
66 73 73 72 71 70 71 64 60 67 72 74 74 77 74 70 67 61 53 50 47 45
72 73 76 76 72 73 76 70 66 74 75 79 81 80 78 72 69 62 52 53 47 42
79 77 79 76 73 74 79 70 73 81 78 83 83 82 81 80 70 58 57 55 47 37
79 78 74 70 75 79 84 77 80 87 82 81 82 78 86 79 60 58 54 49 44 43
74 79 83 81 80 85 79 79 82 86 83 83 87 85 84 78 59 54 49 42 39 43
88 83 79 83 85 85 77 79 84 85 83 83 81 86 79 73 52 54 45 39 37 43
90 84 79 91 81 79 71 82 82 79 78 82 78 78 85 69 52 50 44 43 42 43
Wind_Direction_500mb
274 274 271 269 270 263 260 258 248 250 257 255 253 246 233 237 235 235 242 226 227 231
282 285 276 263 263 266 262 254 259 258 264 257 247 240 232 229 235 227 233 222 231 222
279 276 274 273 269 269 270 256 242 249 246 256 247 230 229 223 226 229 221 211 224 224
281 278 277 274 271 268 265 270 261 241 238 240 236 225 221 214 214 217 214 210 217 224
282 276 272 270 267 268 267 265 261 249 241 232 231 225 220 210 208 210 206 207 207 211
285 278 274 274 269 266 262 260 257 246 235 228 226 222 219 207 202 207 207 203 201 204
287 276 274 273 267 265 260 260 254 243 232 228 223 218 212 202 198 201 203 202 201 204
283 277 273 270 267 264 258 256 247 240 232 226 219 212 206 199 196 197 195 197 197 202
282 274 270 269 265 264 258 252 242 235 229 223 215 209 202 197 193 192 188 196 192 199
279 271 267 264 261 261 258 248 237 227 225 218 207 206 199 196 189 183 190 193 187 195
271 268 265 262 265 262 253 244 229 218 220 210 200 201 198 191 183 180 188 188 190 191
265 261 264 261 267 256 244 239 222 215 211 199 193 197 196 182 181 178 181 183 189 194
267 270 268 266 272 248 237 225 214 212 199 193 194 192 191 173 173 173 174 178 187 193
269 269 264 269 258 239 226 213 205 195 188 193 193 181 175 170 171 170 168 177 192 201
Wind_Speed_850mb
36 36 36 44 51 50 49 52 56 67 73 66 65 63 72 78 74 69 62 63 53 42
39 41 41 48 57 56 59 59 58 60 61 55 62 68 73 65 61 63 59 53 53 45
44 45 47 48 54 55 59 65 64 53 58 60 56 59 64 57 61 58 51 47 46 43
51 51 51 51 53 57 57 61 68 62 55 59 56 62 66 64 58 55 58 50 45 44
57 57 58 57 55 61 62 59 59 57 57 62 60 66 72 70 60 58 59 51 47 45
57 62 61 63 62 62 62 60 58 58 60 68 69 71 75 67 65 57 54 52 47 47
62 64 67 69 69 65 62 59 59 62 67 74 70 71 70 67 65 57 52 48 44 46
66 73 73 72 71 70 71 64 60 67 72 74 74 77 74 70 67 61 53 50 47 45
72 73 76 76 72 73 76 70 66 74 75 79 81 80 78 72 69 62 52 53 47 42
79 77 79 76 73 74 79 70 73 81 78 83 83 82 81 80 70 58 57 55 47 37
79 78 74 70 75 79 84 77 80 87 82 81 82 78 86 79 60 58 54 49 44 43
74 79 83 81 80 85 79 79 82 86 83 83 87 85 84 78 59 54 49 42 39 43
88 83 79 83 85 85 77 79 84 85 83 83 81 86 79 73 52 54 45 39 37 43
90 84 79 91 81 79 71 82 82 79 78 82 78 78 85 69 52 50 44 43 42 43
Wind_Direction_850mb
274 274 271 269 270 263 260 258 248 250 257 255 253 246 233 237 235 235 242 226 227 231
282 285 276 263 263 266 262 254 259 258 264 257 247 240 232 229 235 227 233 222 231 222
279 276 274 273 269 269 270 256 242 249 246 256 247 230 229 223 226 229 221 211 224 224
281 278 277 274 271 268 265 270 261 241 238 240 236 225 221 214 214 217 214 210 217 224
282 276 272 270 267 268 267 265 261 249 241 232 231 225 220 210 208 210 206 207 207 211
285 278 274 274 269 266 262 260 257 246 235 228 226 222 219 207 202 207 207 203 201 204
287 276 274 273 267 265 260 260 254 243 232 228 223 218 212 202 198 201 203 202 201 204
283 277 273 270 267 264 258 256 247 240 232 226 219 212 206 199 196 197 195 197 197 202
282 274 270 269 265 264 258 252 242 235 229 223 215 209 202 197 193 192 188 196 192 199
279 271 267 264 261 261 258 248 237 227 225 218 207 206 199 196 189 183 190 193 187 195
271 268 265 262 265 262 253 244 229 218 220 210 200 201 198 191 183 180 188 188 190 191
265 261 264 261 267 256 244 239 222 215 211 199 193 197 196 182 181 178 181 183 189 194
267 270 268 266 272 248 237 225 214 212 199 193 194 192 191 173 173 173 174 178 187 193
269 269 264 269 258 239 226 213 205 195 188 193 193 181 175 170 171 170 168 177 192 201